Wind_Speed
17 18 19 14 11 10 8 7 9 7 5 4 8 9 8 6 11 13 18 17 17 19 14 13 10 8 9 9 8 8 9 9 11 16 16 16 16 17 18 17 14 14 16 16
19 25 16 14 10 10 9 9 7 8 9 7 9 13 12 14 9 10 13 19 19 19 19 17 14 10 10 11 10 10 11 12 12 13 14 14 13 14 13 13 10 12 12 14
21 7 16 17 14 12 11 9 9 11 9 8 11 10 5 8 9 17 17 16 21 24 21 19 17 12 13 11 11 12 12 12 11 10 12 13 13 12 12 11 10 9 10 13
19 20 14 10 18 13 11 5 9 10 5 5 5 7 5 6 5 12 19 20 23 28 26 20 18 16 13 13 12 12 13 13 12 11 10 11 13 11 12 12 14 13 11 12
16 12 20 19 15 10 7 8 7 5 6 8 8 8 3 3 4 5 9 19 21 28 30 25 20 17 16 13 10 9 12 14 14 14 13 14 13 12 13 14 14 16 15 14
19 12 11 19 19 15 8 5 4 2 5 14 5 6 5 2 3 4 6 10 18 23 28 29 25 23 22 17 14 10 9 12 15 15 13 13 13 13 14 15 15 15 14 14
17 21 17 11 15 13 11 11 13 8 9 6 2 9 9 6 8 5 5 8 17 22 28 30 33 27 24 18 15 11 9 7 14 16 13 13 14 13 13 14 14 16 14 14
14 17 22 20 22 17 17 16 15 6 8 6 3 7 2 9 8 7 2 1 10 23 27 30 33 30 28 19 17 12 12 9 9 11 12 12 12 13 14 15 14 16 14 15
9 13 8 21 20 21 15 16 15 18 12 13 14 6 11 4 8 10 6 3 4 16 25 28 28 28 26 24 22 16 16 16 11 9 9 11 12 13 14 15 15 17 17 17
11 11 8 13 21 21 23 14 15 17 10 9 7 6 6 8 5 11 7 4 3 9 20 26 28 28 27 22 27 23 22 17 16 15 15 13 15 15 15 15 13 16 16 18
24 19 12 11 23 25 22 23 20 18 8 9 9 4 2 7 2 11 7 4 5 6 17 25 30 29 25 24 22 23 22 16 16 20 20 18 17 15 17 16 15 15 15 16
22 17 23 23 12 22 27 28 25 21 18 18 20 12 3 9 3 9 7 6 7 5 14 22 27 29 28 24 25 24 23 20 19 20 22 18 17 17 15 16 16 17 17 17
14 19 18 18 21 18 20 21 23 23 24 23 13 11 2 10 6 12 8 6 5 8 10 13 22 25 27 28 28 28 24 21 21 19 19 22 19 15 14 16 17 18 19 19
13 19 22 23 23 23 24 23 21 21 20 20 19 18 9 9 8 11 10 6 4 8 8 9 13 17 21 23 24 23 26 23 20 17 18 20 22 20 19 18 18 17 19 19
17 22 20 23 23 14 19 22 22 21 23 23 18 16 12 11 9 10 13 11 9 8 8 9 12 15 15 17 15 16 19 20 18 16 13 12 16 18 18 21 23 21 21 19
15 21 19 21 21 20 22 23 22 23 22 22 19 14 10 8 13 13 14 15 8 9 9 9 11 13 14 15 16 15 15 15 15 13 14 15 15 17 18 19 25 29 26 26
14 17 24 27 22 16 20 23 22 24 24 19 22 17 14 16 16 16 16 17 11 9 10 11 12 12 13 13 13 13 12 11 11 11 11 12 13 14 14 16 18 19 28 27
18 14 20 27 28 21 24 11 14 20 24 25 21 16 13 11 15 18 15 17 16 12 11 10 9 9 10 12 12 11 10 10 8 7 7 9 11 14 16 17 19 20 22 23
25 23 22 27 32 29 28 25 13 15 21 23 24 18 15 16 16 16 19 19 17 17 13 9 6 6 7 11 12 11 10 9 8 9 11 15 16 17 20 23 24 24 24 25
26 35 26 21 30 24 24 19 17 14 15 16 22 21 17 15 13 19 23 26 23 21 16 10 7 6 6 8 9 8 7 8 10 13 17 16 17 18 18 18 21 23 25 27
14 22 39 28 25 30 12 16 15 13 11 16 19 24 19 20 14 16 22 28 25 21 15 12 9 8 7 6 5 5 7 10 12 12 12 12 14 15 16 16 17 20 22 24
21 7 30 41 33 23 14 21 22 21 16 12 11 20 19 19 17 16 18 28 29 24 18 14 12 10 8 7 8 8 9 8 9 11 12 11 11 12 14 15 17 19 20 21
18 25 10 7 24 35 28 26 20 24 25 22 17 19 18 18 18 19 20 25 27 25 17 14 15 12 11 11 11 10 9 9 9 9 10 10 11 12 13 13 15 17 19 20
13 24 21 7 4 10 25 32 34 32 34 40 33 20 17 13 24 20 20 25 25 25 20 18 17 14 14 13 11 9 5 4 6 7 9 10 11 12 13 15 15 16 17 19
14 15 25 25 11 8 13 24 25 28 32 29 30 19 21 11 22 24 21 26 26 24 23 20 18 16 14 11 9 8 6 8 10 10 11 12 13 13 14 14 16 16 16 18
13 14 18 29 14 7 6 15 28 30 30 30 32 28 14 12 18 26 27 25 23 26 24 24 21 16 12 9 7 6 6 8 9 11 12 14 16 17 17 18 20 17 18 18
Wind_Direction
223 229 233 231 248 260 286 309 330 337 304 314 265 263 247 252 231 212 210 209 207 211 208 213 208 208 201 196 198 170 148 143 127 134 127 138 151 154 157 163 167 165 166 171
223 232 228 246 243 257 266 293 327 327 328 305 297 289 264 234 183 207 216 212 208 207 207 203 211 213 198 194 203 194 166 160 153 142 145 143 152 160 162 171 178 174 177 182
224 235 230 241 243 253 260 274 307 312 296 283 301 294 231 243 238 232 243 214 205 201 205 205 208 212 205 198 191 182 173 178 178 170 163 158 164 172 179 179 185 196 193 198
238 228 240 239 232 241 260 272 307 295 279 315 298 306 292 233 242 235 228 229 209 204 202 204 207 204 199 199 195 194 188 183 184 181 174 173 174 177 184 192 203 206 213 214
226 230 231 234 219 232 254 290 305 286 257 296 221 276 145 5 247 228 226 223 224 210 208 209 200 186 193 195 194 191 198 194 185 180 189 189 195 189 195 197 197 210 222 221
225 245 236 227 230 240 241 273 295 259 272 254 135 295 223 61 325 233 223 223 214 208 204 204 196 191 190 192 193 199 190 201 196 189 188 194 197 207 201 202 204 213 215 218
237 232 235 228 202 212 217 229 242 225 208 264 88 286 265 314 306 242 229 230 213 202 200 198 200 190 191 185 190 187 189 190 195 198 191 196 200 203 205 211 214 217 217 219
224 220 221 214 213 212 219 231 256 264 270 249 217 253 341 311 277 236 197 198 213 201 197 201 205 200 203 203 195 183 187 181 183 181 189 199 211 210 209 216 214 217 222 231
213 236 217 216 220 215 218 228 243 278 252 266 269 270 287 326 283 206 187 95 167 209 198 200 202 203 207 202 200 194 193 194 201 194 201 215 220 226 223 224 227 224 228 232
238 254 237 227 213 220 227 246 224 232 267 262 233 265 282 351 293 193 194 183 184 223 203 196 196 201 200 208 206 207 215 210 210 222 225 228 228 227 229 227 228 231 230 234
233 241 245 217 216 215 218 229 238 270 253 278 248 178 275 325 241 184 198 243 285 244 210 199 197 196 193 200 202 210 218 218 223 236 228 233 228 229 234 233 227 229 231 233
226 231 237 235 217 221 231 229 236 233 227 240 288 299 318 316 208 188 200 267 298 214 195 198 201 198 198 201 204 209 211 216 227 234 219 227 229 230 235 237 238 237 239 242
212 218 238 229 225 232 220 227 235 242 246 249 238 230 199 292 301 212 198 291 279 175 174 196 208 208 205 204 206 210 218 225 222 228 230 233 234 236 242 242 240 244 243 244
223 230 231 236 219 218 216 224 230 236 228 229 221 262 259 267 278 214 215 214 180 173 176 176 187 204 211 213 216 219 216 213 220 230 240 241 240 246 252 245 246 249 248 244
227 237 237 238 246 235 223 223 227 223 232 242 244 239 241 238 233 202 209 189 146 151 172 171 171 174 181 194 195 192 191 203 216 232 238 236 235 239 250 255 251 243 247 251
231 240 238 243 238 239 235 232 232 228 237 243 235 254 232 229 229 216 212 190 176 138 152 164 176 177 178 179 189 204 213 220 228 240 242 244 247 255 263 273 256 244 250 256
250 235 235 242 234 238 236 232 230 230 227 234 232 237 226 237 229 232 213 196 200 170 144 153 157 167 177 187 197 206 214 220 222 222 234 243 256 265 268 270 265 266 245 265
248 243 238 246 241 234 234 225 232 239 235 232 235 234 227 236 244 231 208 199 189 184 163 145 149 166 178 181 178 181 181 184 191 211 240 260 270 274 276 274 269 266 262 265
241 245 245 241 234 239 237 236 253 248 239 222 227 228 235 239 235 217 195 193 193 184 172 170 150 162 173 185 197 201 207 216 231 251 268 284 279 276 275 271 269 267 265 265
243 229 231 235 236 230 227 191 217 234 230 215 234 224 233 230 233 210 196 188 189 186 186 190 185 168 159 158 166 187 214 238 255 267 282 278 274 275 279 274 270 266 265 265
225 215 221 235 247 232 216 211 221 211 194 201 217 223 231 231 223 212 206 195 194 196 198 198 203 180 186 190 210 238 263 261 264 270 277 276 276 278 280 280 278 276 274 272
230 237 216 226 242 242 230 228 235 228 232 214 232 218 221 233 225 208 216 201 200 204 199 200 211 208 203 223 250 269 279 281 277 274 276 277 277 279 282 281 279 278 278 277
222 217 263 248 224 229 236 226 235 234 227 255 259 239 220 228 218 200 200 200 204 205 204 212 216 218 218 238 256 276 290 297 301 301 303 305 302 296 289 286 284 283 281 278
233 228 228 278 218 209 217 220 225 228 214 223 229 236 218 220 181 173 193 196 198 198 203 213 214 215 230 244 259 277 279 331 342 342 338 336 330 322 313 305 300 294 288 283
238 242 231 232 259 196 219 211 206 208 207 212 224 209 212 203 183 177 185 196 193 199 207 211 212 223 236 244 260 252 264 308 322 325 329 328 322 319 317 312 305 301 294 289
260 248 235 224 211 166 251 207 215 212 213 231 222 221 223 204 204 185 189 193 194 199 207 208 222 229 229 236 237 247 286 310 315 319 323 326 324 321 318 315 312 306 300 294
Height
3176 3179 3178 3179 3180 3180 3180 3179 3178 3178 3176 3174 3174 3173 3173 3170 3171 3172 3174 3177 3179 3182 3183 3185 3183 3183 3184 3184 3184 3184 3185 3188 3189 3190 3192 3194 3197 3199 3202 3205 3207 3210 3213 3216
3175 3172 3176 3177 3178 3178 3179 3178 3177 3176 3173 3173 3173 3171 3170 3168 3169 3169 3170 3173 3177 3180 3181 3182 3182 3183 3183 3184 3185 3185 3185 3188 3190 3191 3194 3196 3199 3201 3203 3206 3208 3210 3213 3216
3171 3171 3172 3174 3176 3177 3177 3176 3176 3176 3174 3170 3169 3166 3166 3165 3165 3166 3166 3169 3173 3175 3179 3179 3180 3181 3182 3183 3184 3185 3185 3187 3189 3192 3194 3197 3199 3201 3204 3206 3208 3209 3213 3216
3168 3169 3170 3171 3173 3175 3174 3174 3175 3174 3173 3168 3169 3164 3163 3164 3162 3162 3163 3164 3166 3168 3173 3176 3177 3179 3181 3182 3183 3185 3185 3187 3189 3191 3193 3196 3198 3201 3204 3205 3207 3209 3211 3214
3164 3165 3167 3168 3170 3173 3174 3173 3173 3172 3171 3170 3165 3165 3158 3161 3160 3160 3159 3160 3162 3164 3168 3172 3175 3177 3180 3181 3182 3184 3185 3187 3189 3191 3193 3196 3198 3201 3203 3204 3205 3208 3210 3212
3162 3161 3162 3164 3168 3170 3171 3172 3171 3171 3170 3163 3161 3164 3155 3157 3160 3159 3158 3157 3157 3160 3163 3168 3172 3174 3176 3178 3180 3182 3184 3186 3188 3190 3193 3195 3196 3198 3201 3203 3204 3206 3207 3210
3158 3158 3160 3160 3164 3166 3169 3169 3164 3162 3159 3155 3160 3162 3155 3156 3157 3155 3155 3154 3154 3155 3160 3164 3166 3169 3173 3176 3178 3181 3183 3185 3186 3189 3192 3194 3196 3197 3199 3201 3203 3204 3207 3207
3152 3153 3154 3157 3159 3162 3165 3165 3160 3157 3153 3152 3157 3155 3152 3155 3153 3153 3152 3152 3151 3152 3155 3159 3162 3167 3171 3174 3177 3179 3181 3183 3186 3188 3190 3192 3194 3196 3197 3198 3201 3202 3205 3207
3149 3150 3151 3153 3156 3161 3161 3162 3161 3157 3156 3157 3151 3152 3150 3152 3150 3150 3151 3151 3150 3151 3153 3156 3159 3164 3168 3171 3175 3177 3179 3181 3185 3187 3188 3190 3192 3195 3196 3196 3198 3199 3201 3202
3147 3148 3148 3149 3153 3155 3155 3158 3159 3156 3153 3151 3145 3150 3146 3149 3149 3149 3150 3150 3150 3150 3151 3154 3157 3160 3165 3168 3171 3174 3177 3178 3182 3185 3187 3188 3190 3191 3193 3194 3196 3197 3198 3199
3144 3146 3146 3147 3146 3147 3152 3153 3154 3150 3149 3145 3142 3141 3146 3148 3147 3148 3150 3148 3148 3148 3149 3151 3154 3157 3161 3165 3168 3171 3174 3176 3179 3181 3184 3185 3187 3188 3190 3192 3193 3195 3196 3197
3138 3140 3139 3140 3140 3143 3144 3145 3147 3147 3149 3149 3144 3142 3144 3146 3146 3148 3148 3146 3145 3145 3146 3149 3152 3155 3158 3161 3165 3168 3171 3174 3176 3178 3180 3183 3184 3185 3187 3189 3190 3192 3193 3195
3134 3134 3133 3134 3138 3138 3139 3141 3142 3142 3142 3140 3142 3139 3143 3144 3144 3144 3146 3145 3144 3144 3146 3147 3149 3152 3154 3157 3160 3163 3168 3170 3173 3175 3177 3179 3181 3182 3184 3185 3186 3188 3190 3191
3129 3128 3127 3124 3126 3130 3134 3136 3136 3137 3136 3137 3137 3137 3140 3141 3142 3142 3143 3144 3143 3144 3145 3146 3147 3150 3152 3155 3158 3161 3164 3168 3171 3173 3175 3176 3177 3179 3180 3182 3183 3185 3186 3187
3125 3123 3123 3123 3122 3124 3125 3127 3130 3132 3132 3131 3131 3134 3138 3138 3140 3140 3141 3142 3142 3143 3144 3145 3147 3149 3151 3154 3157 3160 3163 3166 3169 3170 3171 3172 3174 3176 3177 3178 3178 3180 3182 3183
3118 3117 3119 3118 3120 3121 3123 3123 3125 3127 3128 3128 3130 3131 3134 3135 3136 3137 3138 3140 3141 3142 3144 3145 3146 3148 3151 3154 3157 3160 3162 3164 3165 3167 3168 3169 3170 3171 3172 3172 3172 3175 3176 3178
3112 3114 3115 3112 3114 3116 3116 3117 3119 3122 3124 3127 3128 3130 3131 3132 3133 3134 3135 3138 3140 3142 3143 3145 3146 3148 3150 3152 3155 3157 3159 3161 3162 3164 3165 3166 3167 3167 3167 3167 3168 3168 3170 3172
3107 3109 3109 3106 3109 3106 3110 3110 3113 3116 3118 3122 3123 3125 3127 3130 3130 3131 3134 3136 3139 3141 3142 3144 3146 3148 3150 3151 3153 3155 3157 3158 3160 3161 3162 3163 3163 3163 3163 3164 3164 3164 3165 3165
3102 3103 3104 3102 3099 3101 3102 3106 3109 3109 3111 3116 3119 3123 3124 3125 3126 3128 3131 3134 3137 3139 3141 3143 3145 3147 3148 3150 3152 3154 3155 3156 3158 3159 3159 3159 3158 3158 3157 3157 3157 3157 3158 3159
3091 3094 3100 3096 3092 3089 3096 3098 3102 3105 3108 3111 3113 3118 3120 3121 3123 3126 3127 3131 3134 3137 3139 3141 3144 3145 3147 3149 3150 3152 3153 3154 3155 3155 3155 3154 3154 3153 3151 3150 3150 3150 3150 3151
3083 3085 3089 3091 3087 3088 3091 3095 3098 3103 3107 3106 3108 3112 3116 3118 3123 3121 3124 3128 3132 3135 3138 3140 3142 3144 3146 3148 3149 3150 3151 3152 3152 3151 3151 3150 3149 3147 3146 3145 3144 3143 3143 3142
3081 3079 3081 3087 3086 3086 3088 3092 3095 3101 3098 3101 3104 3107 3110 3112 3116 3120 3122 3125 3128 3132 3135 3138 3140 3141 3143 3145 3147 3148 3148 3148 3148 3147 3147 3146 3145 3144 3142 3140 3139 3138 3137 3136
3076 3076 3077 3079 3082 3082 3082 3085 3087 3091 3097 3098 3102 3104 3105 3107 3111 3116 3119 3122 3125 3129 3133 3136 3138 3140 3141 3143 3144 3144 3144 3144 3143 3143 3142 3141 3140 3139 3137 3136 3134 3133 3131 3130
3069 3070 3073 3074 3075 3073 3077 3078 3082 3085 3090 3098 3102 3102 3102 3102 3106 3111 3116 3119 3123 3127 3131 3133 3135 3137 3139 3140 3141 3141 3142 3141 3140 3139 3138 3136 3135 3134 3132 3131 3129 3127 3126 3124
3065 3064 3065 3069 3070 3069 3070 3072 3076 3080 3084 3089 3094 3095 3098 3100 3104 3108 3113 3117 3121 3125 3128 3130 3133 3134 3136 3138 3138 3139 3139 3139 3137 3136 3135 3133 3131 3129 3127 3126 3124 3123 3121 3119
3061 3060 3060 3063 3061 3062 3065 3066 3069 3074 3079 3082 3088 3094 3094 3097 3101 3105 3110 3114 3118 3121 3124 3126 3129 3131 3133 3134 3135 3136 3136 3135 3134 3133 3131 3129 3126 3124 3122 3120 3118 3117 3115 3114